Torna al catalogo

DELTA 1 DEB

AttivoLEO
NORAD 10471·DEBRIS·🇺🇸 United States

Lanciato Jul 14, 1977 da Cape Canaveral Space Force Station

Loading…

Prossimi Passaggi (prossime 24 ore)

TLE

AggiornatoSource: Space-Track

Epoca: Sep 14, 2026, 09:13 UTC

1 10471U 77065ED  26257.38413391  .00000833  00000-0  22243-3 0  9992
2 10471  29.0564 146.4190 0842676 103.5630 266.0116 13.26106818365223

Traccia DELTA 1 DEB in tempo reale con AllMySat

Download on the App Store